(323) Brucia
ephemeris date magn radius delta ra dec elong phase
Opposition14 Mar 202514.02.887 AU2.017 AU12h41m+34°09'144.9°11.4°
Today11 May 202514.82.984 AU2.467 AU11h56m+33°06'111.1°18.4°
(323) Brucia - 2025-05-11
astro.vanbuitenen.nl


 
-1 year
-1 month
-1 day
Now
+1 day
+1 month
+1 year

The interactive orbit chart above shows the body's path through the solar system and its position at the given date. Green and blue lines are shown perpendicular to the ecliptic plane: Green if the path is above the ecliptic plane, blue if it is below. (Left-click and drag to rotate the view; Right-click and drag to move the view; Use scroll wheel to zoom in our out.)

The orbital elements of Brucia are:

            e (Eccentricity)                : 0.2996812
            a (Semimajor axis)              : 2.3816238
            i (Inclination)                 : 24.26200
            Ω (Longitude of ascending node) : 97.28106
            ω (Argument of perihelion)      : 291.53504
            M (Mean anomaly)                : 136.80396
            Epoch                           : 2025 May 05

            L (Longitude of perihelion)     : 30.68634
            B (Latitude of perihelion)      : -22.47161
            P (Orbital period in years)     : 3.68            
        

The light curve chart below shows the estimated development of the minor planet's magnitude.


The all-sky chart below shows the path of the minor planet over the same period as the light curve. The current position is marked yellow.





The following chart shows the path of the minor planet in the next few days. The field of view is optimized for (~10x50) binoculars and finderscopes. A more printer-friendly version of the same chart can be found below.




Ephemerides:
Date       Time       RA (2000)    DEC (2000)    delta   radius  elong  phase   PA    magn
2025-05-11 00:00 UT   11 56 48.0   +33 06 25     2.467    2.984  111.1   18.4   130   14.8 
2025-05-11 15:01 UT   11 56 40.7   +33 01 11     2.475    2.985  110.7   18.5   130   14.8 
2025-05-12 00:00 UT   11 56 36.6   +32 58 01     2.480    2.986  110.4   18.5   129   14.8 
2025-05-13 00:00 UT   11 56 26.7   +32 49 27     2.492    2.987  109.6   18.6   129   14.8 
2025-05-14 00:00 UT   11 56 18.2   +32 40 45     2.505    2.989  108.9   18.7   128   14.8 
2025-05-15 00:00 UT   11 56 11.2   +32 31 56     2.517    2.990  108.1   18.7   128   14.9 
2025-05-16 00:00 UT   11 56 05.6   +32 22 58     2.530    2.991  107.4   18.8   127   14.9 
2025-05-17 00:00 UT   11 56 01.4   +32 13 52     2.542    2.993  106.6   18.9   127   14.9 
2025-05-18 00:00 UT   11 55 58.7   +32 04 40     2.555    2.994  105.9   19.0   126   14.9 
2025-05-19 00:00 UT   11 55 57.3   +31 55 20     2.568    2.995  105.1   19.0   125   14.9 
2025-05-20 00:00 UT   11 55 57.3   +31 45 53     2.581    2.997  104.4   19.1   125   14.9 
2025-05-21 00:00 UT   11 55 58.7   +31 36 20     2.594    2.998  103.6   19.2   124   14.9 
2025-05-22 00:00 UT   11 56 01.5   +31 26 40     2.607    2.999  102.9   19.2   124   15.0 
2025-05-23 00:00 UT   11 56 05.5   +31 16 54     2.620    3.001  102.1   19.3   123   15.0 
2025-05-24 00:00 UT   11 56 11.0   +31 07 02     2.633    3.002  101.4   19.3   123   15.0 
2025-05-25 00:00 UT   11 56 17.7   +30 57 05     2.646    3.003  100.7   19.4   122   15.0 
2025-05-26 00:00 UT   11 56 25.7   +30 47 01     2.659    3.005   99.9   19.4   122   15.0 
2025-05-27 00:00 UT   11 56 35.0   +30 36 53     2.673    3.006   99.2   19.4   121   15.0 
2025-05-28 00:00 UT   11 56 45.6   +30 26 39     2.686    3.007   98.5   19.5   121   15.0 
2025-05-29 00:00 UT   11 56 57.5   +30 16 21     2.699    3.009   97.8   19.5   121   15.0 
2025-05-30 00:00 UT   11 57 10.6   +30 05 58     2.713    3.010   97.0   19.5   120   15.1 
2025-05-31 00:00 UT   11 57 24.8   +29 55 30     2.726    3.011   96.3   19.6   120   15.1 
2025-06-01 00:00 UT   11 57 40.3   +29 44 59     2.739    3.012   95.6   19.6   119   15.1 
2025-06-02 00:00 UT   11 57 57.0   +29 34 23     2.753    3.014   94.9   19.6   119   15.1 
2025-06-03 00:00 UT   11 58 14.9   +29 23 43     2.766    3.015   94.2   19.6   118   15.1 
2025-06-04 00:00 UT   11 58 33.8   +29 12 60     2.780    3.016   93.4   19.6   118   15.1 
2025-06-05 00:00 UT   11 58 53.9   +29 02 13     2.793    3.017   92.7   19.6   118   15.1 
2025-06-06 00:00 UT   11 59 15.1   +28 51 23     2.807    3.018   92.0   19.6   117   15.1 
2025-06-07 00:00 UT   11 59 37.4   +28 40 29     2.820    3.020   91.3   19.6   117   15.1 
2025-06-08 00:00 UT   12 00 00.8   +28 29 33     2.834    3.021   90.6   19.6   117   15.2 
2025-06-09 00:00 UT   12 00 25.2   +28 18 33     2.848    3.022   89.9   19.6   116   15.2 
2025-06-10 00:00 UT   12 00 50.6   +28 07 31     2.861    3.023   89.2   19.6   116   15.2 


    Terminology:
            
    delta:  distance between minor planet and earth in AU
    radius: distance between minor planet and sun in AU
    magn:   magnitude (brightness) estimate    
    ra:     right ascension in hours (24h = 360deg)
    dec:    declination in degrees
    elong:  elongation in degrees (angle sun-earth-minor planet)    
    phase:  phase angle in degrees (angle sun-minor planet-earth)        
    AU:     Astronomical Unit (mean distance between earth and sun: 149597870.7 km
    

Orbital elements provided by the MPC (Minor Planet Center).
Calculations by a modified version of AAPlus, a C# implementation of the AA+ project by PJ Naughter from the algorithms presented in the book "Astronomical Algorithms" by Jean Meeus.
NGC2000 dso catalog and star labels from VizieR as provided by the Strasbourg astronomical Data Center.
Tycho2 catalog from the ESO archive.